DW8266 Weather Reports


Display with metric or nautical units.
time (UTC)temp
F
wind
direction
speed
MPH
gust
MPH
rain 1hr
in
rain 24hr
in
rain mn
in
humidity
%
barometer
mb
20260905054558 82 168 0.0 0.0 0.00 0.00 0.00 90 1013.2
20260905051555 83 168 0.0 0.0 0.00 0.00 0.00 90 1013.3
20260905050106 83 168 0.0 2.0 0.00 0.00 0.00 90 1013.3
20260905044559 83 168 0.0 2.0 0.00 0.00 0.00 90 1013.3
20260905044509 83 168 0.0 2.0 0.00 0.00 0.00 90 1013.3
20260905043058 83 168 0.0 2.0 0.00 0.00 0.00 89 1013.3
20260905041600 84 169 0.0 3.0 0.00 0.00 0.00 89 1013.4
20260905040104 84 134 0.0 2.0 0.00 0.00 0.00 88 1013.7
20260905034601 84 130 0.0 2.0 0.00 0.00 0.00 88 1013.7
20260905031614 85 130 0.0 0.0 0.00 0.00 0.00 86 1013.7
20260905030003 85 130 0.0 1.0 0.00 0.00 0.00 85 1013.7
20260905024600 86 130 0.0 1.0 0.00 0.00 0.00 85 1013.6
20260905023100 86 123 0.0 1.0 0.00 0.00 0.00 84 1013.4
20260905021602 86 159 0.0 2.0 0.00 0.00 0.00 83 1013.3
20260905020002 87 150 0.0 3.0 0.00 0.00 0.00 82 1013.0
20260905014601 87 86 0.0 1.0 0.00 0.00 0.00 80 1012.9
20260905013103 87 86 0.0 3.0 0.00 0.00 0.00 78 1012.8
20260905011600 88 54 0.0 4.0 0.00 0.00 0.00 78 1012.5
20260905010108 88 17 0.0 3.0 0.00 0.00 0.00 77 1012.4
20260905004559 89 169 0.0 3.0 0.00 0.00 0.00 76 1012.3
20260905003059 89 155 0.0 3.0 0.00 0.00 0.00 76 1012.2
20260905001600 90 145 0.0 2.0 0.00 0.00 0.00 75 1012.0
20260904234559 91 92 0.0 5.0 0.00 0.00 0.00 73 1011.9
20260904234502 91 91 0.0 5.0 0.00 0.00 0.00 73 1011.9
20260904233100 91 132 0.0 5.0 0.00 0.00 0.00 71 1011.9
20260904233001 91 111 0.0 5.0 0.00 0.00 0.00 71 1011.8
20260904231600 92 185 0.0 2.0 0.00 0.00 0.00 71 1011.6
20260904230109 91 185 0.0 3.0 0.00 0.00 0.00 73 1011.8
20260904230007 91 185 0.0 3.0 0.00 0.00 0.00 74 1011.8
20260904223104 92 225 0.0 2.0 0.00 0.00 0.00 72 1012.1
20260904221606 93 184 0.0 1.0 0.00 0.00 0.00 70 1012.1
20260904220118 94 154 1.0 3.0 0.00 0.00 0.00 69 1012.1
20260904214559 93 98 1.0 7.0 0.00 0.00 0.00 74 1012.2
20260904213059 93 160 0.0 5.0 0.00 0.00 0.00 71 1012.5
20260904211600 93 157 0.0 2.0 0.00 0.00 0.00 72 1012.5
20260904210058 93 159 0.0 2.0 0.00 0.00 0.00 72 1012.6
20260904210005 93 159 0.0 2.0 0.00 0.00 0.00 71 1012.7
20260904204600 92 175 1.0 4.0 0.00 0.00 0.00 76 1012.8
20260904203059 91 123 0.0 3.0 0.00 0.00 0.00 77 1013.2
20260904201559 90 112 0.0 2.0 0.00 0.00 0.00 77 1013.4
20260904200108 88 65 0.0 5.0 0.00 0.00 0.00 82 1013.6
20260904194559 87 84 0.0 4.0 0.00 0.00 0.00 84 1013.8
20260904193058 86 59 0.0 3.0 0.00 0.00 0.00 87 1013.9
20260904191600 84 347 0.0 3.0 0.00 0.00 0.00 87 1013.8
20260904190106 83 71 0.0 4.0 0.00 0.00 0.00 87 1014.2
20260904190005 83 71 0.0 4.0 0.00 0.00 0.00 87 1014.2
20260904184611 83 90 0.0 0.0 0.00 0.00 0.00 89 1014.6
20260904183102 82 90 0.0 2.0 0.00 0.00 0.00 88 1015.0
20260904181559 82 92 0.0 2.0 0.00 0.00 0.00 88 1015.1
20260904180111 82 41 0.0 3.0 0.00 0.00 0.00 89 1015.0
20260904180001 82 41 0.0 3.0 0.00 0.00 0.00 89 1015.0
20260904174619 82 70 0.0 2.0 0.00 0.00 0.00 90 1015.3
20260904173103 81 65 0.0 0.0 0.00 0.00 0.00 90 1015.1
20260904171604 81 65 1.0 4.0 0.00 0.00 0.00 89 1015.5
20260904170059 81 170 0.0 1.0 0.00 0.00 0.00 89 1015.1
20260904170001 81 170 0.0 1.0 0.00 0.00 0.00 89 1015.1
20260904164559 81 170 0.0 0.0 0.00 0.00 0.00 88 1015.4
20260904163100 82 170 0.0 1.0 0.00 0.00 0.00 88 1015.3
20260904160109 83 208 1.0 3.0 0.00 0.00 0.00 87 1014.9
20260904160001 82 211 0.0 2.0 0.00 0.00 0.00 87 1014.9
20260904153003 87 235 4.0 8.0 0.00 0.00 0.00 82 1014.4
20260904151607 89 169 1.0 4.0 0.00 0.00 0.00 84 1014.6
20260904144600 89 148 1.0 3.0 0.00 0.00 0.00 85 1014.4
20260904143103 88 76 0.0 2.0 0.00 0.00 0.00 87 1014.4
20260904141600 87 74 0.0 3.0 0.00 0.00 0.00 88 1014.4
20260904140104 86 74 0.0 1.0 0.00 0.00 0.00 89 1014.3
20260904140001 86 74 0.0 0.0 0.00 0.00 0.00 89 1014.3
20260904134608 85 74 0.0 3.0 0.00 0.00 0.00 90 1014.4
20260904133104 85 63 0.0 4.0 0.00 0.00 0.00 90 1014.1
20260904131559 83 103 0.0 3.0 0.00 0.00 0.00 91 1014.0
20260904130103 82 121 0.0 2.0 0.00 0.00 0.00 92 1013.8
20260904124600 82 167 0.0 0.0 0.00 0.00 0.00 92 1013.7
20260904123100 82 167 0.0 0.0 0.00 0.00 0.00 92 1013.4
20260904123002 82 167 0.0 0.0 0.00 0.00 0.00 92 1013.5
20260904121502 81 167 0.0 0.0 0.00 0.00 0.00 92 1013.4
20260904120110 81 167 0.0 0.0 0.00 0.00 0.00 92 1013.2
20260904120002 82 167 0.0 0.0 0.00 0.00 0.00 92 1013.2
20260904114600 82 167 0.0 0.0 0.00 0.00 0.00 92 1013.0
20260904113100 82 167 0.0 0.0 0.00 0.00 0.00 92 1013.2
20260904111559 82 167 0.0 0.0 0.00 0.00 0.00 92 1013.3
20260904110100 82 167 0.0 0.0 0.00 0.00 0.00 92 1013.1
20260904104600 82 167 0.0 0.0 0.00 0.00 0.00 92 1013.0
20260904103104 82 167 0.0 0.0 0.00 0.00 0.00 92 1012.9
20260904101559 82 167 0.0 2.0 0.00 0.00 0.00 92 1012.6
20260904100059 82 167 0.0 0.0 0.00 0.00 0.00 92 1012.5
20260904100002 82 167 0.0 0.0 0.00 0.00 0.00 92 1012.5
20260904094607 82 167 0.0 0.0 0.00 0.00 0.00 92 1012.5
20260904093106 82 167 0.0 0.0 0.00 0.00 0.00 92 1012.5
20260904091555 82 168 0.0 0.0 0.00 0.00 0.00 92 1012.5
20260904090055 82 168 0.0 0.0 0.00 0.00 0.00 92 1012.5
20260904084556 82 168 0.0 0.0 0.00 0.00 0.00 92 1012.7
20260904083055 82 168 0.0 0.0 0.00 0.00 0.00 92 1012.7
20260904081554 82 168 0.0 0.0 0.00 0.00 0.00 92 1012.7
20260904074556 82 168 0.0 0.0 0.00 0.00 0.00 92 1012.8
20260904073059 82 168 0.0 0.0 0.00 0.00 0.00 92 1012.8
20260904071559 82 168 0.0 2.0 0.00 0.00 0.00 92 1012.8
20260904064556 82 168 0.0 2.0 0.00 0.00 0.00 92 1013.2
20260904063057 82 168 0.0 1.0 0.00 0.00 0.00 92 1013.2
20260904061602 82 168 0.0 2.0 0.00 0.00 0.00 92 1013.0
20260904060054 82 168 0.0 3.0 0.00 0.00 0.00 92 1013.0